Regional Weather Roundup
Issued by NWS

Home | Current Version | Previous Version | Graphics & Text | Print | Product List | Glossary On
Versions: 1 2 3 4 5 6 7 8 9 10 11 12 13 14 15 16 17 18 19 20 21 22 23 24 25 26 27 28 29 30 31 32 33 34 35 36 37 38 39 40 41 42 43 44 45 46 47 48 49 50
000
ASUS43 KIND 191700
RWRIN

WEATHER ROUNDUP FOR INDIANA
NATIONAL WEATHER SERVICE INDIANAPOLIS IN
100 PM EDT SAT MAY 19 2018

NOTE: "FAIR" INDICATES FEW OR NO CLOUDS BELOW 12,000 FEET WITH NO
SIGNIFICANT WEATHER AND/OR OBSTRUCTIONS TO VISIBILITY.

* - STATION DOES NOT REPORT WEATHER SUCH AS PRECIPITATION OR FOG.

+ - STATION NOT QUALITY CONTROLLED BY THE NATIONAL WEATHER SERVICE.
    USE DATA WITH CAUTION...ESPECIALLY DEWPOINT AND RELATIVE
    HUMIDITY OBSERVATIONS.

INZ001>003-010>013-019-020-191800-
NORTHWEST INDIANA

CITY           SKY/WX    TMP DP  RH WIND       PRES   REMARKS
GARY /AIRPORT/ CLOUDY    64  61  88 CALM      29.89R
KNOX *+        CLOUDY    64  63  94 W8        29.88S
LA PORTE +     CLOUDY    65  62  90 W7        29.89R
MICHIGAN CITY+ CLOUDY    63  61  94 W5        29.89R
MONTICELLO +   FAIR      72  65  78 NW3       29.88F
RENSSELAER +   CLOUDY    70  61  73 W7        29.89S

$$

LMZ046-743>745-191800-
SOUTHERN LAKE MICHIGAN

STATION/POSITION TIME  TEMP    WIND        PRES    WAVE
                       AIR SEA DIR/SP/G            HT
                 (UTC) (F)     (DEG/KT/KT) (MB)    (FT)
BURNS HARBOR     1640   53        CALM     1012.9R
MICHIGAN CITY    1630   52     240/  7/  8   N/A
5NW MICH CITY    1650   49 52  310/  8/ 10   N/A     1

$$

INZ004-005-014>016-021>024-191800-
NORTH CENTRAL INDIANA

CITY           SKY/WX    TMP DP  RH WIND       PRES   REMARKS
ELKHART        CLOUDY    66  63  88 W5        29.86F
GOSHEN         CLOUDY    67  64  90 W6        29.86S FOG
PERU/GRISSOM   PTSUNNY   72  72 100 NW8       29.87S
ROCHESTER +    PTSUNNY   73  66  78 W6        29.88S
SOUTH BEND     CLOUDY    65  62  90 W9        29.87S
WARSAW +       CLOUDY    68  64  88 NW5       29.87F

$$

INZ006>009-017-018-025>027-191800-
NORTHEAST INDIANA

CITY           SKY/WX    TMP DP  RH WIND       PRES   REMARKS
ANGOLA *+      CLOUDY    72  66  83 CALM      29.85F
AUBURN +       FAIR      73  68  83 W5        29.86F
FORT WAYNE     LGT RAIN  71  68  90 W13       29.87S
HUNTINGTON +   FAIR      71  68  92 W6        29.87S
KENDALLVILLE + PTSUNNY   73  64  73 W7        29.86F

$$

INZ028-029-035-036-043>045-051>053-191800-
WEST CENTRAL INDIANA

CITY           SKY/WX    TMP DP  RH WIND       PRES   REMARKS
CRAWFORDSVL +  PTSUNNY   71  68  90 W9        29.90S
GREENCASTLE +  FAIR      73  64  73 W5        29.91S
LAFAYETTE      CLOUDY    73  67  81 W6        29.88F
TERRE HAUTE    FAIR      77  67  71 W6        29.91S

$$

INZ030>032-037>040-046>048-054>057-064-065-191800-
CENTRAL INDIANA

CITY           SKY/WX    TMP DP  RH WIND       PRES   REMARKS
ANDERSON       FAIR      75  68  78 S9        29.89S
FRANKFORT +    CLOUDY    74  69  84 W6        29.90F
GREENWOOD *+   CLOUDY    74  65  73 W12       29.90S
INDIANAPOLIS   PTSUNNY   76  68  76 W15       29.88S
-EAGLE CREEK   PTSUNNY   75  68  78 W12       29.88F
KOKOMO +       LGT RAIN  72  66  81 W9        29.88F
MT COMFORT *+  CLOUDY    73  70  88 W8        29.89S
SHELBYVILLE    FAIR      77  66  68 SW12G20   29.89F
ZIONSVILLE +   LGT RAIN  68  67  97 W5        29.90S

$$

INZ033-034-041-042-049-050-058-059-191800-
EAST CENTRAL INDIANA

CITY           SKY/WX    TMP DP  RH WIND       PRES   REMARKS
MUNCIE         FAIR      78  65  63 S10       29.88S
RICHMOND +     CLOUDY    70  68  94 SW13      29.93S

$$

INZ060-061-067>069-081>083-085>088-191800-
SOUTHWEST INDIANA

CITY           SKY/WX    TMP DP  RH WIND       PRES   REMARKS
EVANSVILLE     PTSUNNY   76  67  73 W12G20    29.94S
HUNTINGBURG +  PTSUNNY   75  68  78 W10       29.94F

$$

INZ062-063-066-070>080-084-089>092-191800-
SOUTH CENTRAL AND SOUTHEAST INDIANA

CITY           SKY/WX    TMP DP  RH WIND       PRES   REMARKS
BLOOMINGTON    LGT RAIN  69  67  93 SW9       29.93R FOG
FRENCH LICK *+ CLOUDY    68 N/A N/A CALM      29.95R
SEYMOUR +      LGT RAIN  72  70  94 SW3       29.92

$$





USA.gov is the U.S. government's official web portal to all federal, state and local government web resources and services.